TimeCDT,TemperatureF,Dew PointF,Humidity,Sea Level PressureIn,VisibilityMPH,Wind Direction,Wind SpeedMPH,Gust SpeedMPH,PrecipitationIn,Events,Conditions,WindDirDegrees,DateUTC
12:53 AM,32.0,19.0,59,30.09,10.0,SSW,6.9,-,N/A,,Clear,210,2012-10-08 05:53:00
1:53 AM,30.9,19.9,64,30.09,10.0,SW,4.6,-,N/A,,Clear,220,2012-10-08 06:53:00
2:53 AM,28.9,19.0,67,30.08,10.0,SW,6.9,-,N/A,,Clear,220,2012-10-08 07:53:00
3:53 AM,30.0,19.9,66,30.07,10.0,SSW,5.8,-,N/A,,Clear,200,2012-10-08 08:53:00
4:53 AM,30.9,19.9,64,30.06,10.0,SSW,5.8,-,N/A,,Clear,210,2012-10-08 09:53:00
5:53 AM,30.9,19.9,64,30.07,10.0,SSW,8.1,-,N/A,,Clear,210,2012-10-08 10:53:00
6:53 AM,35.1,21.9,59,30.06,10.0,SSW,10.4,-,N/A,,Clear,210,2012-10-08 11:53:00
7:53 AM,37.9,24.1,57,30.06,10.0,SSW,9.2,-,N/A,,Clear,210,2012-10-08 12:53:00
8:53 AM,46.0,25.0,44,30.06,10.0,SW,12.7,-,N/A,,Clear,220,2012-10-08 13:53:00
9:53 AM,53.1,26.1,35,30.04,10.0,SW,18.4,-,N/A,,Clear,220,2012-10-08 14:53:00
10:53 AM,57.9,27.0,31,30.02,10.0,SSW,19.6,24.2,N/A,,Clear,210,2012-10-08 15:53:00
11:53 AM,59.0,27.0,29,30.01,10.0,SW,20.7,32.2,N/A,,Clear,220,2012-10-08 16:53:00
12:53 PM,61.0,26.1,26,29.98,10.0,SSW,31.1,35.7,N/A,,Clear,200,2012-10-08 17:53:00
1:53 PM,63.0,25.0,24,29.94,10.0,SSW,25.3,34.5,N/A,,Partly Cloudy,210,2012-10-08 18:53:00
2:53 PM,61.0,26.1,26,29.93,10.0,SSW,24.2,32.2,N/A,,Partly Cloudy,210,2012-10-08 19:53:00
3:53 PM,61.0,26.1,26,29.91,10.0,SSW,25.3,33.4,N/A,,Partly Cloudy,200,2012-10-08 20:53:00
4:53 PM,60.1,26.1,27,29.90,10.0,SSW,23.0,34.5,N/A,,Mostly Cloudy,200,2012-10-08 21:53:00
5:53 PM,59.0,26.1,28,29.90,10.0,South,19.6,-,N/A,,Overcast,190,2012-10-08 22:53:00
6:53 PM,57.9,27.0,31,29.89,10.0,South,15.0,23.0,N/A,,Overcast,190,2012-10-08 23:53:00
9:53 PM,55.9,28.9,36,29.90,10.0,SSW,20.7,28.8,N/A,,Overcast,200,2012-10-09 02:53:00
10:53 PM,55.0,28.9,37,29.89,10.0,SSW,16.1,26.5,N/A,,Mostly Cloudy,200,2012-10-09 03:53:00
11:53 PM,54.0,30.0,40,29.88,10.0,SSW,17.3,23.0,N/A,,Scattered Clouds,200,2012-10-09 04:53:00